| time (UTC) | temp C | wind direction | speed KPH | gust KPH | rain 1hr cm | rain 24hr cm | rain mn cm | humidity % | barometer mb |
| 20260505194916 | 23 | 237 | 4.8 | 11.3 | 0.00 | 0.00 | 0.00 | 41 | 1013.3 |
| 20260505193916 | 23 | 228 | 4.8 | 12.9 | 0.00 | 0.00 | 0.00 | 42 | 1013.6 |
| 20260505192916 | 23 | 148 | 4.8 | 14.5 | 0.00 | 0.00 | 0.00 | 44 | 1013.8 |
| 20260505191916 | 24 | 194 | 4.8 | 12.9 | 0.00 | 0.00 | 0.00 | 46 | 1014.0 |
| 20260505190916 | 23 | 131 | 6.4 | 24.1 | 0.00 | 0.00 | 0.00 | 46 | 1014.0 |
| 20260505185916 | 23 | 280 | 6.4 | 24.1 | 0.00 | 0.00 | 0.00 | 48 | 1014.2 |
| 20260505184916 | 23 | 216 | 4.8 | 12.9 | 0.00 | 0.00 | 0.00 | 50 | 1014.5 |
| 20260505183916 | 23 | 147 | 4.8 | 6.4 | 0.00 | 0.00 | 0.00 | 53 | 1014.7 |
| 20260505182916 | 23 | 229 | 4.8 | 11.3 | 0.00 | 0.00 | 0.00 | 53 | 1014.8 |
| 20260505181916 | 23 | 185 | 6.4 | 16.1 | 0.00 | 0.00 | 0.00 | 53 | 1015.1 |
| 20260505180916 | 23 | 226 | 6.4 | 17.7 | 0.00 | 0.00 | 0.00 | 50 | 1015.1 |
| 20260505175916 | 23 | 264 | 8.0 | 17.7 | 0.00 | 0.00 | 0.00 | 51 | 1015.3 |
| 20260505174916 | 23 | 73 | 6.4 | 19.3 | 0.00 | 0.00 | 0.00 | 49 | 1015.5 |
| 20260505173916 | 23 | 315 | 6.4 | 19.3 | 0.00 | 0.00 | 0.00 | 49 | 1015.6 |
| 20260505172916 | 23 | 254 | 6.4 | 17.7 | 0.00 | 0.00 | 0.00 | 49 | 1015.4 |
| 20260505171916 | 23 | 220 | 6.4 | 14.5 | 0.00 | 0.00 | 0.00 | 48 | 1015.7 |
| 20260505170916 | 23 | 261 | 4.8 | 16.1 | 0.00 | 0.00 | 0.00 | 49 | 1016.0 |
| 20260505165916 | 23 | 263 | 8.0 | 16.1 | 0.00 | 0.00 | 0.00 | 50 | 1016.1 |
| 20260505164916 | 23 | 45 | 6.4 | 14.5 | 0.00 | 0.00 | 0.00 | 51 | 1016.3 |
| 20260505163916 | 22 | 4 | 8.0 | 19.3 | 0.00 | 0.00 | 0.00 | 50 | 1016.5 |
| 20260505162916 | 22 | 225 | 6.4 | 25.7 | 0.00 | 0.00 | 0.00 | 51 | 1016.6 |
| 20260505161916 | 22 | 157 | 9.7 | 20.9 | 0.00 | 0.00 | 0.00 | 49 | 1016.6 |
| 20260505160916 | 22 | 341 | 8.0 | 22.5 | 0.00 | 0.00 | 0.00 | 50 | 1016.4 |
| 20260505152916 | 21 | 274 | 6.4 | 20.9 | 0.00 | 0.00 | 0.00 | 54 | 1016.6 |
| 20260505151916 | 21 | 253 | 3.2 | 11.3 | 0.00 | 0.00 | 0.00 | 56 | 1016.4 |
| 20260505150916 | 21 | 114 | 3.2 | 8.0 | 0.00 | 0.00 | 0.00 | 56 | 1016.5 |
| 20260505124917 | 15 | 345 | 1.6 | 3.2 | 0.00 | 0.00 | 0.00 | 73 | 1016.5 |
| 20260505123917 | 14 | 345 | 0.0 | 0.0 | 0.00 | 0.00 | 0.00 | 74 | 1016.3 |
| 20260505122917 | 14 | 345 | 0.0 | 1.6 | 0.00 | 0.00 | 0.00 | 74 | 1016.3 |
| 20260505121917 | 13 | 345 | 0.0 | 3.2 | 0.00 | 0.00 | 0.00 | 75 | 1016.3 |
| 20260505120917 | 13 | 349 | 1.6 | 3.2 | 0.00 | 0.00 | 0.00 | 75 | 1016.2 |
| 20260505115917 | 13 | 9 | 1.6 | 4.8 | 0.00 | 0.00 | 0.00 | 75 | 1016.3 |
| 20260505114917 | 12 | 10 | 1.6 | 4.8 | 0.00 | 0.00 | 0.00 | 75 | 1016.1 |
| 20260505113917 | 12 | 16 | 1.6 | 1.6 | 0.00 | 0.00 | 0.00 | 75 | 1016.0 |
| 20260505112917 | 13 | 359 | 1.6 | 8.0 | 0.00 | 0.00 | 0.00 | 74 | 1015.8 |
| 20260505111917 | 14 | 152 | 0.0 | 0.0 | 0.00 | 0.00 | 0.00 | 66 | 1015.6 |
| 20260505110917 | 13 | 153 | 0.0 | 0.0 | 0.00 | 0.00 | 0.00 | 66 | 1015.4 |
| 20260505101917 | 15 | 152 | 0.0 | 0.0 | 0.00 | 0.00 | 0.00 | 60 | 1015.3 |
| 20260505100917 | 16 | 152 | 0.0 | 0.0 | 0.00 | 0.00 | 0.00 | 59 | 1015.4 |
| 20260505095917 | 16 | 152 | 0.0 | 0.0 | 0.00 | 0.00 | 0.00 | 58 | 1015.5 |
| 20260505094917 | 16 | 152 | 0.0 | 0.0 | 0.00 | 0.00 | 0.00 | 58 | 1015.5 |
| 20260505093917 | 16 | 152 | 1.6 | 3.2 | 0.00 | 0.00 | 0.00 | 59 | 1015.4 |
| 20260505092917 | 16 | 178 | 0.0 | 3.2 | 0.00 | 0.00 | 0.00 | 59 | 1015.5 |
| 20260505091917 | 16 | 179 | 0.0 | 3.2 | 0.00 | 0.00 | 0.00 | 60 | 1015.5 |
| 20260505090917 | 16 | 139 | 0.0 | 1.6 | 0.00 | 0.00 | 0.00 | 61 | 1015.4 |
| 20260505085917 | 16 | 214 | 0.0 | 1.6 | 0.00 | 0.00 | 0.00 | 60 | 1015.3 |
| 20260505084917 | 16 | 217 | 1.6 | 3.2 | 0.00 | 0.00 | 0.00 | 60 | 1015.2 |
| 20260505083917 | 16 | 171 | 1.6 | 4.8 | 0.00 | 0.00 | 0.00 | 60 | 1015.2 |
| 20260505082917 | 16 | 157 | 1.6 | 4.8 | 0.00 | 0.00 | 0.00 | 61 | 1015.1 |
| 20260505081917 | 16 | 162 | 1.6 | 4.8 | 0.00 | 0.00 | 0.00 | 63 | 1015.0 |
| 20260505080917 | 15 | 89 | 1.6 | 9.7 | 0.00 | 0.00 | 0.00 | 64 | 1015.0 |
| 20260505075917 | 15 | 192 | 1.6 | 6.4 | 0.00 | 0.00 | 0.00 | 65 | 1015.1 |
| 20260505074917 | 15 | 162 | 0.0 | 3.2 | 0.00 | 0.00 | 0.00 | 65 | 1014.9 |
| 20260505073917 | 15 | 160 | 0.0 | 3.2 | 0.00 | 0.00 | 0.00 | 66 | 1015.0 |
| 20260505072917 | 15 | 176 | 0.0 | 0.0 | 0.00 | 0.00 | 0.00 | 66 | 1015.2 |
| 20260505071917 | 15 | 176 | 0.0 | 0.0 | 0.00 | 0.00 | 0.00 | 66 | 1015.3 |
| 20260505070917 | 15 | 172 | 1.6 | 3.2 | 0.00 | 0.00 | 0.00 | 66 | 1015.4 |
| 20260505065917 | 16 | 181 | 0.0 | 3.2 | 0.00 | 0.00 | 0.00 | 65 | 1015.4 |
| 20260505064917 | 16 | 158 | 1.6 | 4.8 | 0.00 | 0.00 | 0.00 | 65 | 1015.3 |
| 20260505063917 | 16 | 156 | 3.2 | 8.0 | 0.00 | 0.00 | 0.00 | 65 | 1015.2 |
| 20260505062917 | 16 | 193 | 1.6 | 11.3 | 0.00 | 0.00 | 0.00 | 66 | 1015.2 |
| 20260505061918 | 16 | 158 | 1.6 | 8.0 | 0.00 | 0.00 | 0.00 | 66 | 1015.2 |
| 20260505060918 | 16 | 239 | 0.0 | 0.0 | 0.00 | 0.00 | 0.00 | 67 | 1015.1 |
| 20260505055918 | 16 | 268 | 0.0 | 0.0 | 0.00 | 0.00 | 0.00 | 66 | 1015.1 |
| 20260505054918 | 16 | 249 | 0.0 | 0.0 | 0.00 | 0.00 | 0.00 | 65 | 1015.1 |
| 20260505053918 | 16 | 184 | 0.0 | 3.2 | 0.00 | 0.00 | 0.00 | 66 | 1015.0 |
| 20260505052918 | 16 | 162 | 1.6 | 4.8 | 0.00 | 0.00 | 0.00 | 66 | 1015.0 |
| 20260505051918 | 16 | 116 | 1.6 | 4.8 | 0.00 | 0.00 | 0.00 | 66 | 1014.9 |
| 20260505050918 | 16 | 138 | 3.2 | 6.4 | 0.00 | 0.00 | 0.00 | 66 | 1014.8 |
| 20260505040918 | 17 | 200 | 1.6 | 3.2 | 0.00 | 0.00 | 0.00 | 62 | 1015.0 |
| 20260505035918 | 17 | 182 | 1.6 | 3.2 | 0.00 | 0.00 | 0.00 | 62 | 1015.0 |
| 20260505034918 | 17 | 172 | 0.0 | 4.8 | 0.00 | 0.00 | 0.00 | 61 | 1014.9 |
| 20260505033918 | 17 | 159 | 1.6 | 3.2 | 0.00 | 0.00 | 0.00 | 61 | 1014.9 |
| 20260505032918 | 17 | 152 | 1.6 | 4.8 | 0.00 | 0.00 | 0.00 | 61 | 1014.9 |
| 20260505031918 | 17 | 183 | 0.0 | 3.2 | 0.00 | 0.00 | 0.00 | 60 | 1015.0 |
| 20260505030918 | 18 | 184 | 1.6 | 4.8 | 0.00 | 0.00 | 0.00 | 60 | 1015.0 |
| 20260505025918 | 18 | 187 | 1.6 | 3.2 | 0.00 | 0.00 | 0.00 | 60 | 1015.1 |
| 20260505024918 | 18 | 190 | 1.6 | 6.4 | 0.00 | 0.00 | 0.00 | 60 | 1015.2 |
| 20260505023918 | 18 | 185 | 1.6 | 6.4 | 0.00 | 0.00 | 0.00 | 59 | 1015.3 |
| 20260505022918 | 18 | 187 | 1.6 | 6.4 | 0.00 | 0.00 | 0.00 | 59 | 1015.4 |
| 20260505021918 | 18 | 149 | 1.6 | 4.8 | 0.00 | 0.00 | 0.00 | 59 | 1015.3 |
| 20260505020918 | 18 | 268 | 3.2 | 8.0 | 0.00 | 0.00 | 0.00 | 59 | 1015.3 |
| 20260505015918 | 19 | 193 | 3.2 | 8.0 | 0.00 | 0.00 | 0.00 | 59 | 1015.1 |
| 20260505014918 | 19 | 176 | 3.2 | 9.7 | 0.00 | 0.00 | 0.00 | 58 | 1015.1 |
| 20260505013918 | 19 | 185 | 3.2 | 11.3 | 0.00 | 0.00 | 0.00 | 58 | 1015.1 |
| 20260505012918 | 19 | 253 | 3.2 | 8.0 | 0.00 | 0.00 | 0.00 | 58 | 1015.0 |
| 20260505011918 | 20 | 201 | 1.6 | 8.0 | 0.00 | 0.00 | 0.00 | 57 | 1014.9 |
| 20260505010918 | 20 | 177 | 3.2 | 6.4 | 0.00 | 0.00 | 0.00 | 56 | 1014.8 |
| 20260505005918 | 20 | 170 | 1.6 | 4.8 | 0.00 | 0.00 | 0.00 | 54 | 1014.8 |
| 20260505004918 | 21 | 135 | 3.2 | 4.8 | 0.00 | 0.00 | 0.00 | 53 | 1014.6 |
| 20260505003918 | 21 | 198 | 1.6 | 6.4 | 0.00 | 0.00 | 0.00 | 52 | 1014.5 |
| 20260505002918 | 21 | 261 | 3.2 | 9.7 | 0.00 | 0.00 | 0.00 | 50 | 1014.5 |
| 20260505001918 | 21 | 235 | 1.6 | 11.3 | 0.00 | 0.00 | 0.00 | 50 | 1014.5 |
| 20260505000918 | 22 | 214 | 3.2 | 6.4 | 0.00 | 0.00 | 0.00 | 49 | 1014.5 |
| 20260504235918 | 22 | 186 | 3.2 | 9.7 | 0.00 | 0.00 | 0.00 | 47 | 1014.5 |
| 20260504234918 | 22 | 218 | 4.8 | 9.7 | 0.00 | 0.00 | 0.00 | 47 | 1014.5 |
| 20260504233918 | 22 | 235 | 4.8 | 8.0 | 0.00 | 0.00 | 0.00 | 46 | 1014.4 |
| 20260504232918 | 23 | 204 | 3.2 | 17.7 | 0.00 | 0.00 | 0.00 | 46 | 1014.4 |
| 20260504231918 | 24 | 250 | 4.8 | 14.5 | 0.00 | 0.00 | 0.00 | 46 | 1014.3 |
| 20260504230918 | 24 | 264 | 3.2 | 14.5 | 0.00 | 0.00 | 0.00 | 46 | 1014.2 |
| 20260504225918 | 24 | 266 | 3.2 | 12.9 | 0.00 | 0.00 | 0.00 | 46 | 1014.2 |
| 20260504224918 | 24 | 178 | 3.2 | 8.0 | 0.00 | 0.00 | 0.00 | 46 | 1014.2 |
| 20260504223918 | 24 | 179 | 4.8 | 9.7 | 0.00 | 0.00 | 0.00 | 47 | 1014.3 |
| 20260504222918 | 24 | 261 | 6.4 | 14.5 | 0.00 | 0.00 | 0.00 | 47 | 1014.4 |
| 20260504221918 | 24 | 239 | 6.4 | 16.1 | 0.00 | 0.00 | 0.00 | 46 | 1014.3 |
| 20260504220918 | 24 | 278 | 4.8 | 12.9 | 0.00 | 0.00 | 0.00 | 46 | 1014.4 |
| 20260504215918 | 24 | 233 | 4.8 | 14.5 | 0.00 | 0.00 | 0.00 | 45 | 1014.4 |
| 20260504214919 | 25 | 314 | 4.8 | 12.9 | 0.00 | 0.00 | 0.00 | 45 | 1014.4 |
| 20260504213919 | 25 | 272 | 4.8 | 16.1 | 0.00 | 0.00 | 0.00 | 44 | 1014.3 |
| 20260504212919 | 24 | 167 | 3.2 | 9.7 | 0.00 | 0.00 | 0.00 | 48 | 1014.4 |
| 20260504211919 | 24 | 257 | 4.8 | 11.3 | 0.00 | 0.00 | 0.00 | 46 | 1014.5 |
| 20260504210919 | 24 | 260 | 6.4 | 16.1 | 0.00 | 0.00 | 0.00 | 44 | 1014.4 |
| 20260504205919 | 25 | 164 | 6.4 | 11.3 | 0.00 | 0.00 | 0.00 | 44 | 1014.7 |
| 20260504204919 | 25 | 256 | 6.4 | 16.1 | 0.00 | 0.00 | 0.00 | 43 | 1014.6 |
| 20260504203919 | 25 | 337 | 6.4 | 14.5 | 0.00 | 0.00 | 0.00 | 46 | 1014.8 |
| 20260504202919 | 25 | 299 | 4.8 | 14.5 | 0.00 | 0.00 | 0.00 | 45 | 1014.9 |
| 20260504201919 | 25 | 176 | 4.8 | 16.1 | 0.00 | 0.00 | 0.00 | 47 | 1015.0 |
| 20260504200919 | 24 | 319 | 6.4 | 16.1 | 0.00 | 0.00 | 0.00 | 49 | 1015.1 |
| 20260504195919 | 25 | 158 | 4.8 | 16.1 | 0.00 | 0.00 | 0.00 | 48 | 1015.2 |